Antananarivo, Madagascar

10:20 PM EAT on April 20, 2019 (GMT +0300)
Antananarivo

Weather History for FMMI - April, 2019

Change the Weather History Date:

Saturday, April 20, 2019

  Actual Average Record
Temperature  
Mean Temperature 70 °F -  
Max Temperature 78 °F 75 °F 85 °F (2015)
Min Temperature 63 °F 56 °F 53 °F (2003)
Cooling Degree Days 6    
Growing Degree Days 20 (Base 50)    
Moisture  
Dew Point 62 °F    
Average Humidity 76    
Maximum Humidity 94    
Minimum Humidity 50    
Precipitation  
Precipitation 0.00 in 0.05 in - ()
Sea Level Pressure  
Sea Level Pressure 30.11 in    
Wind  
Wind Speed 6 mph ()    
Max Wind Speed 13 mph    
Max Gust Speed -    
Visibility 7.3 miles    
Events      
Averages and records for this station are not official NWS values.
T = Trace of Precipitation, MM = Missing Value Source: Averaged Metar Reports

Daily Weather History Graph

Daily Weather History Graph

Search for Another Location

Airport or City:

Astronomy

Apr. 20, 2019 Rise Set
Actual Time 6:01 AM EAT 5:36 PM EAT
Civil Twilight 5:39 AM EAT 5:58 PM EAT
Nautical Twilight 5:13 AM EAT 6:24 PM EAT
Astronomical Twilight 4:47 AM EAT 6:50 PM EAT
Moon 6:39 PM EAT 6:44 AM EAT
Length of Visible Light 12h 19m
Length of Day
11h 35m
Full, 99% of the Moon is Illuminated
Today
Full
Apr 27
Last Quarter
May 5
New
May 12
First Quarter
May 19
Full

Hourly Weather History & Observations

Time (EAT) Temp. Dew Point Humidity Pressure Visibility Wind Dir Wind Speed Gust Speed Precip Events Conditions
12:00 AM 67 °F 64 °F 89%  in 19 mi Calm Calm - -   Mostly Cloudy
12:00 AM 66.2 °F 62.6 °F 88% 30.18 in 6.2 mi East 8.1 mph - N/A   Mostly Cloudy
12:30 AM 66.2 °F 62.6 °F 88% 30.18 in 6.2 mi East 9.2 mph - N/A   Mostly Cloudy
1:00 AM 66.2 °F 62.6 °F 88% 30.15 in 6.2 mi East 8.1 mph - N/A   Mostly Cloudy
1:30 AM 66.2 °F 62.6 °F 88% 30.15 in 6.2 mi East 5.8 mph - N/A   Mostly Cloudy
2:00 AM 64.4 °F 62.6 °F 94% 30.15 in 6.2 mi East 4.6 mph - N/A   Mostly Cloudy
3:00 AM 64 °F 62 °F 93%  in 19 mi Calm Calm - -   Scattered Clouds
3:00 AM 64.4 °F 60.8 °F 88% 30.12 in 6.2 mi East 4.6 mph - N/A   Partly Cloudy
4:00 AM 64.4 °F 62.6 °F 94% 30.12 in 6.2 mi SSE 4.6 mph - N/A   Mostly Cloudy
5:00 AM 64.4 °F 60.8 °F 88% 30.12 in 6.2 mi East 6.9 mph - N/A   Partly Cloudy
6:00 AM 64 °F 62 °F 90%  in 16 mi East 2.3 mph - -   Scattered Clouds
6:00 AM 62.6 °F 60.8 °F 94% 30.12 in 6.2 mi East 6.9 mph - N/A   Partly Cloudy
7:00 AM 66.2 °F 60.8 °F 83% 30.12 in 6.2 mi ESE 4.6 mph - N/A   Partly Cloudy
7:30 AM 69.8 °F 62.6 °F 78% 30.12 in 6.2 mi East 6.9 mph - N/A   Partly Cloudy
8:00 AM 71.6 °F 62.6 °F 73% 30.15 in 6.2 mi East 8.1 mph - N/A   Partly Cloudy
9:00 AM 73 °F 63 °F 62%  in 25 mi ESE 4.6 mph - -   Mostly Cloudy
9:00 AM 73.4 °F 62.6 °F 69% 30.15 in 6.2 mi ESE 12.7 mph - N/A   Scattered Clouds
9:30 AM 73.4 °F 62.6 °F 69% 30.15 in 6.2 mi ESE 9.2 mph - N/A   Scattered Clouds
10:00 AM 73.4 °F 62.6 °F 69% 30.15 in 6.2 mi South 12.7 mph - N/A   Scattered Clouds
10:30 AM 75.2 °F 62.6 °F 65% 30.15 in 6.2 mi SE 9.2 mph - N/A   Mostly Cloudy
11:00 AM 75.2 °F 62.6 °F 65% 30.15 in 6.2 mi South 9.2 mph - N/A   Mostly Cloudy
11:30 AM 73.4 °F 62.6 °F 69% 30.12 in 6.2 mi SSE 6.9 mph - N/A   Mostly Cloudy
12:00 PM 73 °F 63 °F 62%  in 25 mi East 2.3 mph - -   Mostly Cloudy
12:00 PM 73.4 °F 62.6 °F 69% 30.12 in 6.2 mi SSE 6.9 mph - N/A   Mostly Cloudy
12:30 PM 73.4 °F 62.6 °F 69% 30.12 in 6.2 mi SSE 8.1 mph - N/A   Mostly Cloudy
1:00 PM 75.2 °F 62.6 °F 65% 30.09 in 6.2 mi SSE 9.2 mph - N/A   Mostly Cloudy
1:30 PM 77.0 °F 62.6 °F 61% 30.09 in 6.2 mi ESE 12.7 mph - N/A   Mostly Cloudy
2:00 PM 77.0 °F 60.8 °F 57% 30.09 in 6.2 mi East 10.4 mph - N/A   Scattered Clouds
3:00 PM 78 °F 63 °F 50%  in 25 mi ESE 2.3 mph - -   Partly Cloudy
3:00 PM 78.8 °F 60.8 °F 54% 30.06 in 6.2 mi ESE 10.4 mph - N/A   Mostly Cloudy
3:30 PM 78.8 °F 59.0 °F 51% 30.06 in 6.2 mi East 10.4 mph - N/A   Scattered Clouds
4:00 PM 77.0 °F 59.0 °F 54% 30.06 in 6.2 mi East 8.1 mph - N/A   Scattered Clouds
4:30 PM 77.0 °F 60.8 °F 57% 30.06 in 6.2 mi ESE 9.2 mph - N/A   Partly Cloudy
5:00 PM 75.2 °F 60.8 °F 61% 30.06 in 6.2 mi East 8.1 mph - N/A   Partly Cloudy
5:30 PM 71.6 °F 60.8 °F 69% 30.06 in 6.2 mi East 5.8 mph - N/A   Partly Cloudy
6:00 PM 72 °F 63 °F 66%  in 12 mi East 2.3 mph - -   Scattered Clouds
6:00 PM 71.6 °F 60.8 °F 69% 30.06 in 6.2 mi East 5.8 mph - N/A   Partly Cloudy
7:00 PM 68.0 °F 62.6 °F 83% 30.09 in 6.2 mi East 6.9 mph - N/A   Partly Cloudy
7:30 PM 68.0 °F 64.4 °F 88% 30.09 in 6.2 mi East 5.8 mph - N/A   Partly Cloudy
8:00 PM 66.2 °F 64.4 °F 94% 30.09 in 6.2 mi East 5.8 mph - N/A   Partly Cloudy
9:00 PM 67 °F 65 °F 90%  in 12 mi East 2.3 mph - -   Scattered Clouds
9:00 PM 66.2 °F 64.4 °F 94% 30.12 in 6.2 mi ESE 8.1 mph - N/A   Partly Cloudy
9:30 PM 66.2 °F 62.6 °F 88% 30.12 in 6.2 mi SE 9.2 mph - N/A   Partly Cloudy
10:00 PM 66.2 °F 62.6 °F 88% 30.12 in 6.2 mi ESE 8.1 mph - N/A   Partly Cloudy